View from above orbital plane
|
View from above satellite
|
Ground track
|
The orbit data is extracted from the following two-line orbital elements,
1 25634U 99008A 21016.56544376 -.00000009 00000-0 15541-4 0 9996
2 25634 98.4371 51.5831 0010622 25.9622 334.2085 14.19386567133714
Epoch (UTC): | 16 January 2021 13:34:14 |
Eccentricity: | 0.0010622 |
inclination: | 98.4371° |
perigee height: | 820 km |
apogee height: | 835 km |
right ascension of ascending node: | 51.5831° |
argument of perigee: | 25.9622° |
revolutions per day: | 14.19386567 |
mean anomaly at epoch: | 334.2085° |
orbit number at epoch: | 13371 |
The dashed part of the orbit path shows where the satellite is in the earth's shadow,
|
|